Location: Colebrook
(42.0017°N, 73.0973°W)
Time: 09:13:01
(UTC-04:00)

Vanguard 3 - Visible Passes

Search period start: 25 October 2021 00:00
Search period end: 04 November 2021 00:00
Orbit: 510 x 3259 km, 33.3° (Epoch: 24 October)

Date Brightness Start Highest point End Pass type
(mag) Time Alt. Az. Time Alt. Az. Time Alt. Az.
25 Oct 8.7 18:59:47 10° WSW 19:06:02 48° S 19:14:51 15° ESE visible
25 Oct 9.4 21:10:26 10° W 21:18:47 43° SSW 21:19:23 43° S visible
25 Oct 10.8 23:23:11 10° WSW 23:23:54 12° WSW 23:23:54 12° WSW visible
26 Oct 9.0 19:56:53 10° WSW 20:03:50 46° S 20:09:10 29° SE visible
26 Oct 10.0 22:08:20 10° W 22:13:42 28° SW 22:13:42 28° SW visible
27 Oct 8.7 18:43:40 10° WSW 18:49:21 44° S 18:59:01 10° ESE visible
27 Oct 9.5 20:54:19 10° WSW 21:01:50 37° SSW 21:03:33 36° S visible
27 Oct 10.8 23:07:27 10° WSW 23:08:05 11° WSW 23:08:05 11° WSW visible
28 Oct 9.0 19:40:47 10° WSW 19:47:05 41° S 19:53:27 21° SE visible
28 Oct 10.1 21:52:24 10° WSW 21:58:00 25° SW 21:58:00 25° SW visible
29 Oct 8.7 18:27:34 10° WSW 18:32:44 40° S 18:41:19 10° ESE visible
29 Oct 9.5 20:38:19 10° WSW 20:45:00 31° SSW 20:47:59 28° S visible
29 Oct 10.8 22:52:15 10° WSW 22:52:32 11° WSW 22:52:32 11° WSW visible
30 Oct 9.1 19:24:46 10° WSW 19:30:24 35° S 19:38:03 14° SE visible
30 Oct 10.2 21:36:43 10° WSW 21:42:36 21° SSW 21:42:36 21° SSW visible
31 Oct 8.7 18:11:31 10° WSW 18:16:12 36° S 18:23:38 10° ESE visible
31 Oct 9.7 20:22:27 10° WSW 20:28:15 26° SSW 20:32:46 19° SSE visible
01 Nov 9.2 19:08:49 10° WSW 19:13:48 29° S 19:21:32 10° SE visible
01 Nov 10.3 21:21:27 10° WSW 21:26:16 16° SSW 21:27:37 15° SSW visible
02 Nov 9.8 20:06:48 10° WSW 20:11:35 20° SSW 20:18:02 11° SSE visible
03 Nov 9.3 18:52:59 10° WSW 18:57:16 23° SSW 19:03:28 10° SE visible
03 Nov 10.5 21:07:34 10° SW 21:09:32 11° SSW 21:11:42 10° SSW visible
